Regional Weather Roundup
Issued by NWS Raleigh/Durham, NC

Home | Current Version | Previous Version | Text Only | Print | Product List | Glossary On
Versions: 1 2 3 4 5 6 7 8 9 10 11 12 13 14 15 16 17 18 19 20 21 22 23 24 25 26 27 28 29 30 31 32 33 34 35 36
000
ASUS42 KRAH 230510
RWRRAH
NORTH CAROLINA WEATHER ROUNDUP
NATIONAL WEATHER SERVICE RALEIGH NC
100 AM EDT THU OCT 23 2014

NOTE: "FAIR" INDICATES FEW OR NO CLOUDS BELOW 12,000 FEET WITH NO
SIGNIFICANT WEATHER AND/OR OBSTRUCTIONS TO VISIBILITY.

NCZ001-053-055-056-065-067-230600-
WESTERN NORTH CAROLINA

CITY           SKY/WX    TMP DP  RH WIND       PRES   REMARKS
ASHEVILLE      CLEAR     45  35  68 N18       30.15F
JEFFERSON      PTCLDY    42  33  71 W3        30.10F
MORGANTON      CLEAR     36  35  96 CALM      30.16R
HICKORY        CLEAR     44  37  76 W5        30.10S
RUTHERFORDTON  CLEAR     48  37  64 N3        30.12S
MOUNT AIRY     CLEAR     51  41  68 W5        30.09S
BOONE          CLEAR     41  34  76 NW14G20   30.12S
$$

NCZ021-022-025-041-071-084-088-230600-
CENTRAL NORTH CAROLINA

CITY           SKY/WX    TMP DP  RH WIND       PRES   REMARKS
CHARLOTTE      CLEAR     44  37  76 NW6       30.11S
GREENSBORO     CLEAR     43  38  82 SW5       30.04F
WINSTON-SALEM  CLEAR     50  38  63 NW9       30.06F
RALEIGH-DURHAM CLEAR     48  40  73 CALM      30.03R
FORT BRAGG     CLEAR     52  42  67 NW10      30.03F
FAYETTEVILLE   CLEAR     52  41  66 W8        30.04S
BURLINGTON     CLEAR     48  39  71 W5        30.03F
LAURINBURG     CLEAR     49  41  74 NW8       30.06F
$$

NCZ011-015-027-028-043-044-047-080-103-230600-
NORTHEASTERN NORTH CAROLINA

CITY           SKY/WX    TMP DP  RH WIND       PRES   REMARKS
ROCKY MT-WILSO CLEAR     52  45  77 W5        30.00S
GREENVILLE     MOCLDY    54  46  76 NW5       30.00S
WASHINGTON     CLOUDY    55  45  70 NW6       29.98S
ELIZABETH CITY CLOUDY    57  46  66 NW12      29.90F
MANTEO         CLOUDY    56  49  76 NW18G24   29.89S
CAPE HATTERAS  CLOUDY    57  49  74 NW15G24   29.91S
$$

NCZ078-087-090-091-093-098-101-230600-
SOUTHEASTERN NORTH CAROLINA

CITY           SKY/WX    TMP DP  RH WIND       PRES   REMARKS
LUMBERTON      CLEAR     50  42  74 NW7       30.04F
GOLDSBORO      CLEAR     52  49  92 W6        29.99S
KINSTON        MOCLDY    54  47  75 CALM      30.01R
KENANSVILLE    CLEAR     50  43  77 CALM      30.03R
NEW BERN       PTCLDY    56  47  71 W7        29.99S
CHERRY POINT   PTCLDY    54  47  77 W8        29.99S
BEAUFORT       CLEAR     56  49  77 NW15      29.98R
JACKSONVILLE   CLEAR     51  45  79 W8        30.00S
WILMINGTON     CLEAR     52  44  74 NW7       30.01F
$$




USA.gov is the U.S. government's official web portal to all federal, state and local government web resources and services.